Arklow Spray — C6VK8 — position and weather

sailwx.info

Track history (hours):
 
Tides and Currents Weather Stations Pressure Air Temp Water Temp Dewpoint Dewpoint Depression Visibility Wind Speed Wind Dir Waves Ship Positions

Arklow Spray

Last reported at 2014-Nov-25 16:33 UTC. Time now 2014-Nov-26 23:07 UTC.
Position N 53°02' E 001°19'.

Length 90 m; draft 4.7 m.

Type: Cargo ship. MMSI: 309914000.

Date/timePositionNaut miles runAvg speedWind from/ knotsBaromVisibWave heightAir tempDewpointWater temp
2014-Nov-25 16:33N 53°02' E 001°19'1313.0
2014-Nov-25 15:33N 52°55' E 001°37'1613.0
2014-Nov-25 14:22N 52°46' E 001°58'7210.4
2014-Nov-25 07:28N 52°07' E 003°36'1010.7
2014-Nov-25 06:33N 52°03' E 003°51'9 9.3
2014-Nov-25 05:33N 51°59' E 004°05'1010.0
2014-Nov-25 04:34N 51°54' E 004°18'6 6.0
2014-Nov-25 03:33N 51°54' E 004°28'0 0.0
2014-Nov-25 02:33N 51°54' E 004°28'0 0.0
2014-Nov-25 01:33N 51°54' E 004°28'0 0.0
2014-Nov-25 00:33N 51°54' E 004°28'0 0.0
2014-Nov-24 23:33N 51°54' E 004°28'2 1.5
2014-Nov-24 22:32N 51°53' E 004°27'0 0.0
2014-Nov-24 21:32N 51°53' E 004°27'0 0.0
2014-Nov-24 20:32N 51°53' E 004°27'0 0.0
2014-Nov-24 19:32N 51°53' E 004°27'0 0.0
2014-Nov-24 18:32N 51°53' E 004°27'1 1.4
2014-Nov-24 17:31N 51°54' E 004°28'0 0.0
2014-Nov-24 16:31N 51°54' E 004°28'0 0.0
2014-Nov-24 15:31N 51°54' E 004°28'0 0.0
2014-Nov-24 14:31N 51°54' E 004°28'0 0.0
2014-Nov-24 13:31N 51°54' E 004°28'0 0.0
2014-Nov-24 12:31N 51°54' E 004°28'0 0.0
2014-Nov-24 11:34N 51°54' E 004°28'0 0.0
2014-Nov-24 10:33N 51°54' E 004°28'0 0.0
2014-Nov-24 09:30N 51°54' E 004°28'0 0.0
2014-Nov-24 08:33N 51°54' E 004°28'0 0.0
2014-Nov-24 07:33N 51°54' E 004°28'0 0.0
2014-Nov-24 06:30N 51°54' E 004°28'0 0.0
2014-Nov-24 05:33N 51°54' E 004°28'0 0.0
2014-Nov-24 04:33N 51°54' E 004°28'0 0.0
2014-Nov-24 03:33N 51°54' E 004°28'0 0.0
2014-Nov-24 02:33N 51°54' E 004°28'0 0.0
2014-Nov-24 01:33N 51°54' E 004°28'0 0.0
2014-Nov-24 00:33N 51°54' E 004°28'0 0.0
2014-Nov-23 23:33N 51°54' E 004°28'0 0.0
2014-Nov-23 22:33N 51°54' E 004°28'0 0.0
2014-Nov-23 21:33N 51°54' E 004°28'0 0.0
2014-Nov-23 20:33N 51°54' E 004°28'0 0.0
2014-Nov-23 19:33N 51°54' E 004°28'0 0.0
2014-Nov-23 18:33N 51°54' E 004°28'0 0.0
2014-Nov-23 17:33N 51°54' E 004°28'0 0.0
2014-Nov-23 16:33N 51°54' E 004°28'0 0.0
2014-Nov-23 15:33N 51°54' E 004°28'0 0.0
2014-Nov-23 14:33N 51°54' E 004°28'0 0.0
2014-Nov-23 13:33N 51°54' E 004°28'0 0.0
2014-Nov-23 12:33N 51°54' E 004°28'0 0.0
2014-Nov-23 11:33N 51°54' E 004°28'0 0.0
2014-Nov-23 10:33N 51°54' E 004°28'0 0.0
2014-Nov-23 09:33N 51°54' E 004°28'0 0.0
2014-Nov-23 08:33N 51°54' E 004°28'0 0.0
2014-Nov-23 07:33N 51°54' E 004°28'0 0.0
2014-Nov-23 06:33N 51°54' E 004°28'0 0.0
2014-Nov-23 05:34N 51°54' E 004°28'7 7.3
2014-Nov-23 04:33N 51°54' E 004°16'1010.5
2014-Nov-23 03:33N 51°60' E 004°02'6011.8
2014-Nov-22 22:30N 51°40' E 002°30'1010.6
2014-Nov-22 21:32N 51°32' E 002°19'10 9.7
2014-Nov-22 20:32N 51°26' E 002°07'8 8.4
2014-Nov-22 19:34N 51°26' E 001°54'1010.4
2014-Nov-22 18:34N 51°29' E 001°38'1211.9
2014-Nov-22 17:34N 51°29' E 001°19'1212.4
2014-Nov-22 16:33N 51°29' E 000°59'1313.3
2014-Nov-22 15:33N 51°30' E 000°38'1211.8
2014-Nov-22 14:33N 51°28' E 000°19'6 5.7
2014-Nov-22 13:32N 51°29' E 000°10'0 0.0
2014-Nov-22 12:32N 51°29' E 000°10'0 0.0
2014-Nov-22 11:32N 51°29' E 000°10'0 0.0
2014-Nov-22 10:32N 51°29' E 000°10'0 0.0
2014-Nov-22 09:32N 51°29' E 000°10'0 0.0
2014-Nov-22 08:32N 51°29' E 000°10'0 0.0
2014-Nov-22 07:32N 51°29' E 000°10'0 0.0
2014-Nov-22 06:32N 51°29' E 000°10'0 0.0
2014-Nov-22 05:32N 51°29' E 000°10'0 0.0
2014-Nov-22 04:32N 51°29' E 000°10'0 0.0
2014-Nov-22 03:32N 51°29' E 000°10'0 0.0
2014-Nov-22 02:32N 51°29' E 000°10'0 0.0
2014-Nov-22 01:32N 51°29' E 000°10'0 0.0
2014-Nov-22 00:32N 51°29' E 000°10'0 0.0
2014-Nov-21 23:32N 51°29' E 000°10'0 0.0
2014-Nov-21 22:32N 51°29' E 000°10'0 0.0
2014-Nov-21 21:32N 51°29' E 000°10'0 0.0
2014-Nov-21 20:32N 51°29' E 000°10'5 4.9
2014-Nov-21 19:34N 51°28' E 000°18'6 6.3
2014-Nov-21 18:34N 51°29' E 000°28'8 7.5
2014-Nov-21 17:34N 51°30' E 000°40'8 7.9
2014-Nov-21 16:33N 51°30' E 000°52'7 7.4
2014-Nov-21 15:33N 51°30' E 001°04'8 8.4
2014-Nov-21 14:34N 51°29' E 001°18'7 7.1
2014-Nov-21 13:33N 51°26' E 001°28'2 2.2
2014-Nov-21 12:33N 51°25' E 001°25'0 0.0
2014-Nov-21 11:34N 51°25' E 001°25'0 0.0
2014-Nov-21 10:34N 51°25' E 001°25'9 9.4
2014-Nov-21 09:33N 51°20' E 001°38'8 8.1
2014-Nov-21 08:34N 51°12' E 001°36'6 6.3
2014-Nov-21 07:34N 51°06' E 001°38'8 7.7
2014-Nov-21 06:32N 50°60' E 001°32'  
2014-Nov-18 19:08N 54°17' W 005°07'610.5
2014-Nov-18 18:34N 54°23' W 005°11'1110.7
2014-Nov-18 17:33N 54°33' W 005°17'1110.7
2014-Nov-18 16:34N 54°42' W 005°26'1010.5
2014-Nov-18 15:34N 54°42' W 005°44'7 6.6
2014-Nov-18 14:29N 54°37' W 005°54'0 0.0
2014-Nov-18 13:29N 54°37' W 005°54'0 0.0
2014-Nov-18 12:29N 54°37' W 005°54'0 0.0
2014-Nov-18 11:29N 54°37' W 005°54'0 0.0
2014-Nov-18 10:32N 54°37' W 005°54'0 0.0
2014-Nov-18 09:32N 54°37' W 005°54'0 0.0
2014-Nov-18 08:32N 54°37' W 005°54'0 0.0
2014-Nov-18 07:29N 54°37' W 005°54'0 0.0
2014-Nov-18 06:17N 54°37' W 005°54'0 0.0
2014-Nov-18 05:32N 54°37' W 005°54'0 0.0
2014-Nov-18 04:26N 54°37' W 005°54'0 0.0
2014-Nov-18 03:32N 54°37' W 005°54'0 0.0
2014-Nov-18 02:32N 54°37' W 005°54'0 0.0
2014-Nov-18 01:26N 54°37' W 005°54'0 0.0
2014-Nov-18 00:28N 54°37' W 005°54'0 0.0
2014-Nov-17 23:28N 54°37' W 005°54'0 0.0
2014-Nov-17 22:25N 54°37' W 005°54'0 0.0
2014-Nov-17 20:31N 54°37' W 005°54'0 0.0
2014-Nov-17 19:28N 54°37' W 005°54'1 0.0
2014-Nov-16 09:32N 54°38' W 005°53'8 8.0
2014-Nov-16 08:33N 54°43' W 005°43'1110.6
2014-Nov-16 07:33N 54°41' W 005°24'1110.9
2014-Nov-16 06:33N 54°32' W 005°15'1010.5
2014-Nov-16 05:33N 54°21' W 005°13'  
Track history (hours):
 
Tides and Currents Weather Stations Pressure Air Temp Water Temp Dewpoint Dewpoint Depression Visibility Wind Speed Wind Dir Waves Ship Positions

Arklow Spray

Last reported at 2014-Nov-25 16:33 UTC. Time now 2014-Nov-26 23:07 UTC.
Position N 53°02' E 001°19'.

Length 90 m; draft 4.7 m.

Type: Cargo ship. MMSI: 309914000.

Date/timePositionNaut miles runAvg speedWind from/ knotsBaromVisibWave heightAir tempDewpointWater temp
2014-Nov-25 16:33N 53°02' E 001°19'1313.0
2014-Nov-25 15:33N 52°55' E 001°37'1613.0
2014-Nov-25 14:22N 52°46' E 001°58'7210.4
2014-Nov-25 07:28N 52°07' E 003°36'1010.7
2014-Nov-25 06:33N 52°03' E 003°51'9 9.3
2014-Nov-25 05:33N 51°59' E 004°05'1010.0
2014-Nov-25 04:34N 51°54' E 004°18'6 6.0
2014-Nov-25 03:33N 51°54' E 004°28'0 0.0
2014-Nov-25 02:33N 51°54' E 004°28'0 0.0
2014-Nov-25 01:33N 51°54' E 004°28'0 0.0
2014-Nov-25 00:33N 51°54' E 004°28'0 0.0
2014-Nov-24 23:33N 51°54' E 004°28'2 1.5
2014-Nov-24 22:32N 51°53' E 004°27'0 0.0
2014-Nov-24 21:32N 51°53' E 004°27'0 0.0
2014-Nov-24 20:32N 51°53' E 004°27'0 0.0
2014-Nov-24 19:32N 51°53' E 004°27'0 0.0
2014-Nov-24 18:32N 51°53' E 004°27'1 1.4
2014-Nov-24 17:31N 51°54' E 004°28'0 0.0
2014-Nov-24 16:31N 51°54' E 004°28'0 0.0
2014-Nov-24 15:31N 51°54' E 004°28'0 0.0
2014-Nov-24 14:31N 51°54' E 004°28'0 0.0
2014-Nov-24 13:31N 51°54' E 004°28'0 0.0
2014-Nov-24 12:31N 51°54' E 004°28'0 0.0
2014-Nov-24 11:34N 51°54' E 004°28'0 0.0
2014-Nov-24 10:33N 51°54' E 004°28'0 0.0
2014-Nov-24 09:30N 51°54' E 004°28'0 0.0
2014-Nov-24 08:33N 51°54' E 004°28'0 0.0
2014-Nov-24 07:33N 51°54' E 004°28'0 0.0
2014-Nov-24 06:30N 51°54' E 004°28'0 0.0
2014-Nov-24 05:33N 51°54' E 004°28'0 0.0
2014-Nov-24 04:33N 51°54' E 004°28'0 0.0
2014-Nov-24 03:33N 51°54' E 004°28'0 0.0
2014-Nov-24 02:33N 51°54' E 004°28'0 0.0
2014-Nov-24 01:33N 51°54' E 004°28'0 0.0
2014-Nov-24 00:33N 51°54' E 004°28'0 0.0
2014-Nov-23 23:33N 51°54' E 004°28'0 0.0
2014-Nov-23 22:33N 51°54' E 004°28'0 0.0
2014-Nov-23 21:33N 51°54' E 004°28'0 0.0
2014-Nov-23 20:33N 51°54' E 004°28'0 0.0
2014-Nov-23 19:33N 51°54' E 004°28'0 0.0
2014-Nov-23 18:33N 51°54' E 004°28'0 0.0
2014-Nov-23 17:33N 51°54' E 004°28'0 0.0
2014-Nov-23 16:33N 51°54' E 004°28'0 0.0
2014-Nov-23 15:33N 51°54' E 004°28'0 0.0
2014-Nov-23 14:33N 51°54' E 004°28'0 0.0
2014-Nov-23 13:33N 51°54' E 004°28'0 0.0
2014-Nov-23 12:33N 51°54' E 004°28'0 0.0
2014-Nov-23 11:33N 51°54' E 004°28'0 0.0
2014-Nov-23 10:33N 51°54' E 004°28'0 0.0
2014-Nov-23 09:33N 51°54' E 004°28'0 0.0
2014-Nov-23 08:33N 51°54' E 004°28'0 0.0
2014-Nov-23 07:33N 51°54' E 004°28'0 0.0
2014-Nov-23 06:33N 51°54' E 004°28'0 0.0
2014-Nov-23 05:34N 51°54' E 004°28'7 7.3
2014-Nov-23 04:33N 51°54' E 004°16'1010.5
2014-Nov-23 03:33N 51°60' E 004°02'6011.8
2014-Nov-22 22:30N 51°40' E 002°30'1010.6
2014-Nov-22 21:32N 51°32' E 002°19'10 9.7
2014-Nov-22 20:32N 51°26' E 002°07'8 8.4
2014-Nov-22 19:34N 51°26' E 001°54'1010.4
2014-Nov-22 18:34N 51°29' E 001°38'1211.9
2014-Nov-22 17:34N 51°29' E 001°19'1212.4
2014-Nov-22 16:33N 51°29' E 000°59'1313.3
2014-Nov-22 15:33N 51°30' E 000°38'1211.8
2014-Nov-22 14:33N 51°28' E 000°19'6 5.7
2014-Nov-22 13:32N 51°29' E 000°10'0 0.0
2014-Nov-22 12:32N 51°29' E 000°10'0 0.0
2014-Nov-22 11:32N 51°29' E 000°10'0 0.0
2014-Nov-22 10:32N 51°29' E 000°10'0 0.0
2014-Nov-22 09:32N 51°29' E 000°10'0 0.0
2014-Nov-22 08:32N 51°29' E 000°10'0 0.0
2014-Nov-22 07:32N 51°29' E 000°10'0 0.0
2014-Nov-22 06:32N 51°29' E 000°10'0 0.0
2014-Nov-22 05:32N 51°29' E 000°10'0 0.0
2014-Nov-22 04:32N 51°29' E 000°10'0 0.0
2014-Nov-22 03:32N 51°29' E 000°10'0 0.0
2014-Nov-22 02:32N 51°29' E 000°10'0 0.0
2014-Nov-22 01:32N 51°29' E 000°10'0 0.0
2014-Nov-22 00:32N 51°29' E 000°10'0 0.0
2014-Nov-21 23:32N 51°29' E 000°10'0 0.0
2014-Nov-21 22:32N 51°29' E 000°10'0 0.0
2014-Nov-21 21:32N 51°29' E 000°10'0 0.0
2014-Nov-21 20:32N 51°29' E 000°10'5 4.9
2014-Nov-21 19:34N 51°28' E 000°18'6 6.3
2014-Nov-21 18:34N 51°29' E 000°28'8 7.5
2014-Nov-21 17:34N 51°30' E 000°40'8 7.9
2014-Nov-21 16:33N 51°30' E 000°52'7 7.4
2014-Nov-21 15:33N 51°30' E 001°04'8 8.4
2014-Nov-21 14:34N 51°29' E 001°18'7 7.1
2014-Nov-21 13:33N 51°26' E 001°28'2 2.2
2014-Nov-21 12:33N 51°25' E 001°25'0 0.0
2014-Nov-21 11:34N 51°25' E 001°25'0 0.0
2014-Nov-21 10:34N 51°25' E 001°25'9 9.4
2014-Nov-21 09:33N 51°20' E 001°38'8 8.1
2014-Nov-21 08:34N 51°12' E 001°36'6 6.3
2014-Nov-21 07:34N 51°06' E 001°38'8 7.7
2014-Nov-21 06:32N 50°60' E 001°32'  
2014-Nov-18 19:08N 54°17' W 005°07'610.5
2014-Nov-18 18:34N 54°23' W 005°11'1110.7
2014-Nov-18 17:33N 54°33' W 005°17'1110.7
2014-Nov-18 16:34N 54°42' W 005°26'1010.5
2014-Nov-18 15:34N 54°42' W 005°44'7 6.6
2014-Nov-18 14:29N 54°37' W 005°54'0 0.0
2014-Nov-18 13:29N 54°37' W 005°54'0 0.0
2014-Nov-18 12:29N 54°37' W 005°54'0 0.0
2014-Nov-18 11:29N 54°37' W 005°54'0 0.0
2014-Nov-18 10:32N 54°37' W 005°54'0 0.0
2014-Nov-18 09:32N 54°37' W 005°54'0 0.0
2014-Nov-18 08:32N 54°37' W 005°54'0 0.0
2014-Nov-18 07:29N 54°37' W 005°54'0 0.0
2014-Nov-18 06:17N 54°37' W 005°54'0 0.0
2014-Nov-18 05:32N 54°37' W 005°54'0 0.0
2014-Nov-18 04:26N 54°37' W 005°54'0 0.0
2014-Nov-18 03:32N 54°37' W 005°54'0 0.0
2014-Nov-18 02:32N 54°37' W 005°54'0 0.0
2014-Nov-18 01:26N 54°37' W 005°54'0 0.0
2014-Nov-18 00:28N 54°37' W 005°54'0 0.0
2014-Nov-17 23:28N 54°37' W 005°54'0 0.0
2014-Nov-17 22:25N 54°37' W 005°54'0 0.0
2014-Nov-17 20:31N 54°37' W 005°54'0 0.0
2014-Nov-17 19:28N 54°37' W 005°54'1 0.0
2014-Nov-16 09:32N 54°38' W 005°53'8 8.0
2014-Nov-16 08:33N 54°43' W 005°43'1110.6
2014-Nov-16 07:33N 54°41' W 005°24'1110.9
2014-Nov-16 06:33N 54°32' W 005°15'1010.5
2014-Nov-16 05:33N 54°21' W 005°13'  

Dump ship's entire track history